Home > Time Zones > World Clock > Weather > Italy > Milan > Past weeks

Flag for Italy Weather past 2 weeks in Milan, Italy

Now
73 °F

Clear.


Feels Like: 74 °F
Forecast: 67 / 88 °F
Wind: 2 mph from North

Location: Milan / Linate

Current Time: Aug 29, 2015 at 2:29:50 AM

Latest Report: Aug 29, 2015 at 1:50 AM


Visibility: 10 mi

Pressure: 30.15 "Hg

Humidity: 78%

Dew point: 66 °F

Location of MilanLocation

Historic Weather in Milan — Graph

°F

Milan temperature yesterday

Maximum temperature yesterday: 88 °F (at 3:20 PM)
Minimum temperature yesterday: 66 °F (at 5:50 AM)
Average temperature yesterday: 78 °F

Past Weeks' High & Low Weather Summary

 TemperatureHumidityPressure
High88 °F (Aug 27, 5:20 PM)100% (Aug 24, 6:50 AM)30.18 "Hg (Aug 24, 6:50 AM)
Low63 °F (Aug 16, 3:50 AM)35% (Aug 28, 6:50 PM)29.71 "Hg (Aug 17, 6:20 PM)
Average72 °F71%29.95 "Hg
* Reported Aug 14 1:20 AM — Aug 29 1:20 AM, Milan, Weather by CustomWeather, © 2015

Note: Actual official high and low records may vary slightly from our data, if they occured in-between our weather recording intervals... More about our weather records

Advertising

Milan weather history for previous 24 hours

 ConditionsComfort  
Time TempWeatherWind HumidityBarometerVisibility
1:20 AM
Sat, Aug 29
72 °FClear.No wind83%30.15 "Hg10 mi
12:50 AM75 °FClear.5 mph69%30.15 "Hg10 mi
12:20 AM75 °FClear.3 mph74%30.15 "Hg10 mi
11:50 PM
Fri, Aug 28
73 °FClear.No wind74%30.15 "Hg10 mi
10:50 PM75 °FClear.No wind74%30.15 "Hg10 mi
10:20 PM73 °FClear.1 mph83%30.15 "Hg10 mi
9:50 PM75 °FClear.1 mph74%30.12 "Hg10 mi
9:20 PM77 °FClear.2 mph69%30.12 "Hg10 mi
8:50 PM77 °FSunny.2 mph69%30.12 "Hg10 mi
8:20 PM81 °FSunny.1 mph54%30.09 "Hg10 mi
7:50 PM84 °FSunny.3 mph48%30.09 "Hg10 mi
7:20 PM86 °FSunny.3 mph43%30.09 "Hg10 mi
6:50 PM88 °FSunny.2 mph35%30.09 "Hg10 mi
6:20 PM88 °FPassing clouds.5 mph40%30.09 "HgN/A
5:50 PM88 °FPassing clouds.5 mph40%30.09 "HgN/A
5:20 PM88 °FPassing clouds.3 mph38%30.09 "HgN/A
4:50 PM88 °FSunny.8 mph40%30.09 "Hg10 mi
4:20 PM88 °FPassing clouds.5 mph40%30.09 "HgN/A
3:50 PM88 °FSunny.5 mph40%30.09 "Hg10 mi
3:20 PM88 °FPassing clouds.5 mph40%30.09 "HgN/A
2:50 PM86 °FPassing clouds.5 mph46%30.09 "HgN/A
2:20 PM86 °FPassing clouds.6 mph43%30.09 "HgN/A
1:50 PM84 °FPassing clouds.5 mph48%30.09 "HgN/A
1:20 PM84 °FSunny.5 mph45%30.12 "Hg10 mi
12:50 PM84 °FPassing clouds.6 mph45%30.12 "HgN/A
12:20 PM82 °FPassing clouds.6 mph48%30.12 "HgN/A
11:50 AM81 °FPassing clouds.6 mph54%30.12 "HgN/A
11:20 AM81 °FPassing clouds.6 mph54%30.12 "HgN/A
10:50 AM81 °FSunny.3 mph58%30.12 "Hg10 mi
10:20 AM79 °FPassing clouds.5 mph61%30.12 "HgN/A
9:50 AM77 °FPassing clouds.5 mph69%30.12 "HgN/A
8:50 AM75 °FSunny.2 mph74%30.09 "Hg10 mi
8:20 AM73 °FSunny.2 mph74%30.09 "Hg10 mi
7:50 AM70 °FSunny.2 mph88%30.09 "Hg10 mi
7:20 AM68 °FClear.1 mph88%30.09 "Hg10 mi
6:50 AM66 °FClear.No wind94%30.07 "Hg10 mi
6:20 AM66 °FClear.No wind94%30.07 "Hg10 mi
5:50 AM66 °FClear.No wind94%30.07 "Hg10 mi
4:50 AM68 °FClear.No wind88%30.07 "Hg10 mi
4:20 AM68 °FClear.2 mph88%30.07 "Hg10 mi
3:50 AM68 °FClear.2 mph88%30.07 "Hg10 mi
3:20 AM70 °FClear.No wind83%30.07 "Hg10 mi
2:50 AM70 °FClear.No wind83%30.07 "Hg10 mi
2:20 AM70 °FClear.1 mph78%30.07 "Hg10 mi
Weather by CustomWeather, © 2015

See weather overviewHow to use our weather pages